JDWX 2.63 27.02870 -80.1653 0.000 0.000 20190722_1330 SFWMD JDWX current weather conditions

sailwx.info

Last reported at 2018-Aug-15 08:24 UTC.
Time now 2019-Jul-22 15:51 UTC

Location: N 27°02' W 080°10'.
View on Google Maps.

See reports from other nearby stations

  
Tides and Currents Weather Stations Pressure Air Temp Water Temp Dewpoint Dewpoint Depression Visibility Wind Speed Wind Dir Waves Ship Positions
date/time (UTC)wind fromknots sea level pressurealtimeterstation pressurevisibilityair tempwater tempwave heightnotes
2019-Jul-22 14:30 099 2 gusting 5 29.6-7999.0
2019-Jul-22 14:15 088 2 gusting 7 29.7-7999.0
2019-Jul-22 14:00 091 2 gusting 7 29.6-7999.0
2019-Jul-22 13:45 078 2 gusting 5 28.1-7999.0
2019-Jul-22 13:30 070 1 gusting 3 28.5-7999.0
2019-Jul-22 13:15 054 1 gusting 4 27.5-7999.0
2019-Jul-22 13:00 123 1 gusting 2 27.4-7999.0
2019-Jul-22 12:45 136 2 gusting 4 27.0-7999.0
2019-Jul-22 12:30 134 1 gusting 3 25.8-7999.0
2019-Jul-22 12:15 086 1 gusting 3 25.2-7999.0
2019-Jul-22 12:00 097 1 gusting 4 24.8-7999.0
2019-Jul-22 11:45 330 0 gusting 1 24.1-7999.0
2019-Jul-22 11:30 326 0 gusting 1 23.6-7999.0
2019-Jul-22 11:15 310 0 gusting 1 23.3-7999.0
2019-Jul-22 11:00 316 0 gusting 0 23.2-7999.0
2019-Jul-22 10:45 314 0 gusting 1 23.1-7999.0
2019-Jul-22 10:30 332 0 gusting 0 23.0-7999.0
2019-Jul-22 10:15 204 0 gusting 0 22.9-7999.0
2019-Jul-22 10:00 012 23.0-7999.0
2019-Jul-22 09:45 012 23.0-7999.0
2019-Jul-22 09:30 233 0 gusting 1 23.1-7999.0
2019-Jul-22 09:15 290 0 gusting 1 23.0-7999.0
2019-Jul-22 08:45 347 0 gusting 0 22.9-7999.0
2019-Jul-22 08:30 354 23.1-7999.0
2019-Jul-22 08:15 354 23.1-7999.0
2019-Jul-22 08:00 328 0 gusting 1 23.2-7999.0
2019-Jul-22 07:45 336 0 gusting 1 23.0-7999.0
2019-Jul-22 07:30 120 0 gusting 1 22.8-7999.0
2019-Jul-22 07:15 295 22.8-7999.0
2019-Jul-22 07:00 295 22.9-7999.0
2019-Jul-22 06:45 295 22.9-7999.0
2019-Jul-22 06:30 295 22.9-7999.0
2019-Jul-22 06:15 295 22.9-7999.0
2019-Jul-22 06:00 295 23.0-7999.0
2019-Jul-22 05:45 295 23.1-7999.0
2019-Jul-22 05:30 295 23.2-7999.0
2019-Jul-22 05:15 295 23.3-7999.0
2019-Jul-22 05:00 295 23.4-7999.0
2019-Jul-22 04:45 299 0 gusting 1 23.5-7999.0
2019-Jul-22 04:30 293 0 gusting 0 23.7-7999.0
2019-Jul-22 04:15 250 23.9-7999.0
2019-Jul-22 04:00 273 0 gusting 1 23.9-7999.0
2019-Jul-22 03:45 289 0 gusting 0 24.0-7999.0
2019-Jul-22 03:30 272 0 gusting 0 24.3-7999.0
2019-Jul-22 03:15 274 0 gusting 1 24.4-7999.0
2019-Jul-22 03:00 292 0 gusting 2 24.6-7999.0
2019-Jul-22 02:45 295 0 gusting 2 24.8-7999.0
2019-Jul-22 02:30 270 1 gusting 2 25.2-7999.0
2019-Jul-22 02:15 262 0 gusting 2 25.5-7999.0
2019-Jul-22 02:00 269 1 gusting 4 26.0-7999.0
2019-Jul-22 01:45 202 1 gusting 6 25.7-7999.0
2019-Jul-22 01:30 113 25.7-7999.0
2019-Jul-22 01:15 113 0 gusting 0 25.9-7999.0
2019-Jul-22 01:00 122 0 gusting 0 26.2-7999.0
2019-Jul-22 00:45 123 0 gusting 1 26.5-7999.0
2019-Jul-22 00:30 091 0 gusting 1 26.8-7999.0
2019-Jul-22 00:15 109 1 gusting 2 27.1-7999.0
2019-Jul-22 00:00 119 0 gusting 1 27.5-7999.0
2019-Jul-21 23:45 140 0 gusting 1 27.9-7999.0
2019-Jul-21 23:30 123 1 gusting 4 28.1-7999.0
2019-Jul-21 23:15 118 1 gusting 3 28.2-7999.0
2019-Jul-21 23:00 119 2 gusting 5 25.0-7999.0
2019-Jul-21 22:45 114 1 gusting 4 26.1-7999.0
2019-Jul-21 22:30 132 1 gusting 3 26.1-7999.0
2019-Jul-21 22:15 127 1 gusting 4 25.0-7999.0
2019-Jul-21 22:00 113 2 gusting 5 25.2-7999.0
2019-Jul-21 21:45 120 2 gusting 6 26.6-7999.0
2019-Jul-21 21:30 112 3 gusting 7 29.4-7999.0
2019-Jul-21 21:15 110 3 gusting 6 29.5-7999.0
2019-Jul-21 21:00 111 4 gusting 8 29.6-7999.0
2019-Jul-21 20:45 117 4 gusting 7 30.2-7999.0
2019-Jul-21 20:30 118 3 gusting 8 30.3-7999.0
2019-Jul-21 20:15 127 3 gusting 7 29.2-7999.0
2019-Jul-21 20:00 126 3 gusting 7 28.0-7999.0
2019-Jul-21 19:45 111 4 gusting 10 28.9-7999.0
2019-Jul-21 19:30 112 3 gusting 7 29.8-7999.0
2019-Jul-21 19:15 128 3 gusting 7 29.7-7999.0
2019-Jul-21 19:00 124 3 gusting 11 30.3-7999.0
2019-Jul-21 18:45 133 3 gusting 7 29.7-7999.0
2019-Jul-21 18:30 112 3 gusting 6 28.4-7999.0
2019-Jul-21 18:15 112 3 gusting 6 28.6-7999.0
2019-Jul-21 18:00 112 4 gusting 8 29.4-7999.0
2019-Jul-21 17:45 109 3 gusting 8 30.6-7999.0
2019-Jul-21 17:30 115 4 gusting 8 31.2-7999.0
2019-Jul-21 17:15 114 4 gusting 7 30.9-7999.0
2019-Jul-21 17:00 122 4 gusting 7 31.5-7999.0
2019-Jul-21 16:45 102 3 gusting 8 30.9-7999.0
2019-Jul-21 16:30 124 3 gusting 8 30.5-7999.0
2019-Jul-21 16:15 127 3 gusting 7 31.2-7999.0
2019-Jul-21 16:00 136 3 gusting 6 31.1-7999.0
2019-Jul-21 15:45 113 3 gusting 7 31.0-7999.0
2019-Jul-21 15:30 121 3 gusting 7 30.8-7999.0
2019-Jul-21 15:15 117 4 gusting 7 30.7-7999.0
2019-Jul-21 15:00 119 3 gusting 7 30.5-7999.0
2019-Jul-21 14:45 100 3 gusting 7 30.3-7999.0
2019-Jul-21 14:30 150 2 gusting 5 30.4-7999.0
2019-Jul-21 14:15 148 2 gusting 6 30.5-7999.0
2019-Jul-21 13:45 125 3 gusting 6 27.8-7999.0
2019-Jul-21 13:30 129 2 gusting 5 27.9-7999.0
2019-Jul-21 13:15 101 2 gusting 6 28.6-7999.0
2019-Jul-21 12:30 104 1 gusting 3 27.8-7999.0
2019-Jul-21 08:45 157 0 gusting 1 23.6-7999.0
2019-Jul-21 08:30 002 0 gusting 0 23.7-7999.0
2019-Jul-21 08:15 002 23.8-7999.0
2019-Jul-21 08:00 002 23.7-7999.0
2019-Jul-21 07:45 002 0 gusting 1 23.8-7999.0
2019-Jul-21 07:30 002 23.9-7999.0
2019-Jul-21 07:15 002 0 gusting 0 24.2-7999.0
2019-Jul-21 07:00 002 24.1-7999.0
2019-Jul-21 06:45 002 0 gusting 0 24.0-7999.0
2019-Jul-21 06:30 066 0 gusting 1 23.9-7999.0
2019-Jul-21 06:15 062 0 gusting 1 23.8-7999.0
2019-Jul-21 06:00 111 0 gusting 0 24.0-7999.0
2019-Jul-21 05:45 005 0 gusting 0 23.9-7999.0
2019-Jul-21 05:30 055 0 gusting 1 24.1-7999.0
2019-Jul-21 05:15 001 24.1-7999.0
2019-Jul-21 04:45 288 0 gusting 1 24.4-7999.0
2019-Jul-21 04:30 043 0 gusting 1 24.5-7999.0
2019-Jul-21 04:15 091 0 gusting 1 24.7-7999.0
2019-Jul-21 04:00 106 24.7-7999.0
2019-Jul-21 03:45 106 24.8-7999.0
2019-Jul-21 03:30 106 24.8-7999.0
2019-Jul-21 03:15 106 24.7-7999.0
2019-Jul-21 02:45 106 24.8-7999.0
2019-Jul-21 02:30 106 24.9-7999.0
2019-Jul-21 02:15 106 25.1-7999.0
2019-Jul-21 01:45 106 25.2-7999.0
2019-Jul-21 01:30 106 25.4-7999.0
2019-Jul-21 01:15 106 25.5-7999.0
2019-Jul-21 00:45 106 0 gusting 0 26.2-7999.0
2019-Jul-21 00:30 096 0 gusting 1 26.6-7999.0
2019-Jul-21 00:00 096 0 gusting 2 27.7-7999.0
2019-Jul-20 23:45 124 1 gusting 2 28.0-7999.0
2019-Jul-20 23:30 109 1 gusting 3 28.2-7999.0
2019-Jul-20 23:15 116 1 gusting 4 28.4-7999.0
2019-Jul-20 22:30 107 2 gusting 4 27.1-7999.0
2019-Jul-20 22:15 124 3 gusting 5 26.5-7999.0
2019-Jul-20 22:00 123 2 gusting 6 27.0-7999.0
2019-Jul-20 21:45 111 3 gusting 6 27.6-7999.0
2019-Jul-20 21:30 116 3 gusting 6 28.0-7999.0
2019-Jul-20 21:15 115 2 gusting 7 28.7-7999.0
2019-Jul-20 21:00 113 3 gusting 6 28.6-7999.0
2019-Jul-20 20:45 131 2 gusting 7 27.5-7999.0
2019-Jul-20 20:30 113 3 gusting 5 28.1-7999.0
2019-Jul-20 20:15 119 3 gusting 7 28.2-7999.0
2019-Jul-20 19:45 119 2 gusting 5 29.5-7999.0
2019-Jul-20 19:30 115 2 gusting 5 29.6-7999.0
2019-Jul-20 19:15 111 3 gusting 7 30.0-7999.0
2019-Jul-20 18:45 124 3 gusting 8 30.9-7999.0
2019-Jul-20 18:30 113 3 gusting 8 31.0-7999.0
2019-Jul-20 18:15 117 3 gusting 7 30.9-7999.0
2019-Jul-20 18:00 122 3 gusting 7 29.8-7999.0
2019-Jul-20 17:45 111 3 gusting 6 29.4-7999.0
2019-Jul-20 17:30 106 3 gusting 6 29.7-7999.0
2019-Jul-20 17:15 116 3 gusting 7 29.8-7999.0
2019-Jul-20 17:00 109 3 gusting 7 30.4-7999.0
2019-Jul-20 16:45 107 3 gusting 6 30.7-7999.0
2019-Jul-20 16:30 102 3 gusting 6 31.0-7999.0
2019-Jul-20 16:15 118 3 gusting 6 30.7-7999.0
2019-Jul-20 16:00 116 2 gusting 5 30.4-7999.0
2019-Jul-20 15:45 124 3 gusting 7 30.0-7999.0
2019-Jul-20 15:30 163 2 gusting 5 30.1-7999.0
2019-Jul-20 15:15 145 2 gusting 5 29.3-7999.0
2019-Jul-20 15:00 125 1 gusting 4 26.9-7999.0